軌道要素
Epoch 2021 July 5.0 TT = JDT 2459400.5
T 2021 May 5.79635 TT Rudenko
q 2.6185628 (2000.0) P Q
n 0.18085574 Peri. 57.64599 +0.79214711 +0.48923235
a 3.0968097 Node 270.60928 -0.60591218 +0.70218587
e 0.1544321 Incl. 21.40292 +0.07330344 +0.51728783
P 5.45
From 429 observations 2010 Aug. 13-2021 July 31, mean residual 0".6.
|